Time,TemperatureF,DewpointF,PressureIn,WindDirection,WindDirectionDegrees,WindSpeedMPH,WindSpeedGustMPH,Humidity,HourlyPrecipIn,Conditions,Clouds,dailyrainin,SoftwareType,DateUTC
2013-01-18 00:01:00,4.7,-6.5,30.09,NE,45,1.0,5.0,59,0.00,,,0.00,Wunderground PWS Mod,2013-01-18 05:01:00,
2013-01-18 00:11:00,4.5,-6.7,30.09,NNE,32,4.0,7.0,59,0.00,,,0.00,Wunderground PWS Mod,2013-01-18 05:11:00,
2013-01-18 00:20:00,4.3,-6.9,30.09,NE,56,3.0,7.0,59,0.00,,,0.00,Wunderground PWS Mod,2013-01-18 05:20:00,
2013-01-18 00:25:00,4.3,-7.2,30.09,East,82,1.0,7.0,58,0.00,,,0.00,Wunderground PWS Mod,2013-01-18 05:25:00,
2013-01-18 00:31:00,4.1,-7.1,30.09,North,11,2.0,7.0,59,0.00,,,0.00,Wunderground PWS Mod,2013-01-18 05:31:00,
2013-01-18 00:41:00,4.1,-7.4,30.10,ENE,73,1.0,7.0,58,0.00,,,0.00,Wunderground PWS Mod,2013-01-18 05:41:00,
2013-01-18 00:50:00,4.1,-7.4,30.11,ENE,57,2.0,7.0,58,0.00,,,0.00,Wunderground PWS Mod,2013-01-18 05:50:00,
2013-01-18 00:55:00,4.1,-7.4,30.11,ENE,66,2.0,7.0,58,0.00,,,0.00,Wunderground PWS Mod,2013-01-18 05:55:00,
2013-01-18 01:05:00,3.9,-8.0,30.11,NE,51,2.0,7.0,57,0.00,,,0.00,Wunderground PWS Mod,2013-01-18 06:05:00,
2013-01-18 01:11:00,3.9,-8.3,30.11,NE,40,1.0,5.0,56,0.00,,,0.00,Wunderground PWS Mod,2013-01-18 06:11:00,
2013-01-18 01:15:00,3.5,-9.1,30.11,ENE,68,1.0,5.0,55,0.00,,,0.00,Wunderground PWS Mod,2013-01-18 06:15:00,
2013-01-18 01:20:00,3.7,-8.5,30.10,NNE,25,1.0,5.0,56,0.00,,,0.00,Wunderground PWS Mod,2013-01-18 06:20:00,
2013-01-18 01:26:00,3.7,-8.5,30.10,ENE,57,1.0,5.0,56,0.00,,,0.00,Wunderground PWS Mod,2013-01-18 06:26:00,
2013-01-18 01:31:00,3.5,-9.1,30.10,ENE,68,0.0,5.0,55,0.00,,,0.00,Wunderground PWS Mod,2013-01-18 06:31:00,
2013-01-18 01:36:00,3.5,-9.1,30.11,ENE,66,1.0,5.0,55,0.00,,,0.00,Wunderground PWS Mod,2013-01-18 06:36:00,
2013-01-18 01:41:00,3.4,-9.9,30.11,ENE,64,2.0,5.0,53,0.00,,,0.00,Wunderground PWS Mod,2013-01-18 06:41:00,
2013-01-18 01:50:00,3.2,-10.1,30.10,ENE,65,1.0,5.0,53,0.00,,,0.00,Wunderground PWS Mod,2013-01-18 06:50:00,
2013-01-18 01:55:00,3.2,-10.1,30.10,ENE,65,1.0,5.0,53,0.00,,,0.00,Wunderground PWS Mod,2013-01-18 06:55:00,
2013-01-18 02:00:00,3.0,-10.3,30.10,ENE,65,0.0,5.0,53,0.00,,,0.00,Wunderground PWS Mod,2013-01-18 07:00:00,
2013-01-18 02:05:00,2.8,-10.1,30.10,ENE,65,0.0,5.0,54,0.00,,,0.00,Wunderground PWS Mod,2013-01-18 07:05:00,
2013-01-18 02:11:00,2.8,-10.9,30.10,ENE,65,0.0,4.0,52,0.00,,,0.00,Wunderground PWS Mod,2013-01-18 07:11:00,
2013-01-18 02:15:00,2.2,-11.4,30.13,ENE,68,0.0,3.0,52,0.00,,,0.00,Wunderground PWS Mod,2013-01-18 07:15:00,
2013-01-18 02:21:00,2.6,-10.7,30.10,ENE,65,0.0,4.0,53,0.00,,,0.00,Wunderground PWS Mod,2013-01-18 07:21:00,
2013-01-18 02:26:00,2.4,-10.9,30.10,ENE,65,0.0,4.0,53,0.00,,,0.00,Wunderground PWS Mod,2013-01-18 07:26:00,
2013-01-18 02:31:00,2.2,-11.4,30.10,ENE,65,0.0,4.0,52,0.00,,,0.00,Wunderground PWS Mod,2013-01-18 07:31:00,
2013-01-18 02:40:00,2.0,-10.1,30.13,ENE,65,0.0,3.0,56,0.00,,,0.00,Wunderground PWS Mod,2013-01-18 07:40:00,
2013-01-18 02:46:00,1.5,-9.5,30.13,ENE,65,0.0,3.0,59,0.00,,,0.00,Wunderground PWS Mod,2013-01-18 07:46:00,
2013-01-18 02:51:00,0.9,-9.1,30.13,ENE,65,0.0,3.0,62,0.00,,,0.00,Wunderground PWS Mod,2013-01-18 07:51:00,
2013-01-18 03:01:00,0.3,-9.0,30.13,ENE,65,0.0,3.0,64,0.00,,,0.00,Wunderground PWS Mod,2013-01-18 08:01:00,
2013-01-18 03:06:00,0.0,-9.3,30.14,ENE,65,0.0,3.0,64,0.00,,,0.00,Wunderground PWS Mod,2013-01-18 08:06:00,
2013-01-18 03:11:00,-0.4,-9.7,30.14,ENE,65,0.0,2.0,64,0.00,,,0.00,Wunderground PWS Mod,2013-01-18 08:11:00,
2013-01-18 03:20:00,-1.2,-9.2,30.15,ENE,65,0.0,2.0,68,0.00,,,0.00,Wunderground PWS Mod,2013-01-18 08:20:00,
2013-01-18 03:25:00,-2.4,-10.4,30.14,N/A,-737280,0.0,0.0,68,0.00,,,0.00,Wunderground PWS Mod,2013-01-18 08:25:00,
2013-01-18 03:30:00,-2.0,-10.0,30.15,ENE,65,0.0,2.0,68,0.00,,,0.00,Wunderground PWS Mod,2013-01-18 08:30:00,
2013-01-18 03:35:00,-2.4,-10.4,30.14,ENE,65,0.0,2.0,68,0.00,,,0.00,Wunderground PWS Mod,2013-01-18 08:35:00,
2013-01-18 03:41:00,-2.8,-10.5,30.14,ENE,65,0.0,0.0,69,0.00,,,0.00,Wunderground PWS Mod,2013-01-18 08:41:00,
2013-01-18 03:45:00,-4.3,-11.0,30.14,ENE,68,0.0,1.0,72,0.00,,,0.00,Wunderground PWS Mod,2013-01-18 08:45:00,
2013-01-18 03:51:00,-3.7,-10.7,30.15,ENE,65,0.0,0.0,71,0.00,,,0.00,Wunderground PWS Mod,2013-01-18 08:51:00,
2013-01-18 03:56:00,-3.9,-10.9,30.15,ENE,65,0.0,0.0,71,0.00,,,0.00,Wunderground PWS Mod,2013-01-18 08:56:00,
2013-01-18 04:01:00,-4.1,-10.9,30.15,ENE,65,0.0,0.0,72,0.00,,,0.00,Wunderground PWS Mod,2013-01-18 09:01:00,
2013-01-18 04:11:00,-4.6,-11.1,30.14,ENE,65,0.0,1.0,73,0.00,,,0.00,Wunderground PWS Mod,2013-01-18 09:11:00,
2013-01-18 04:20:00,-5.0,-11.4,30.16,ENE,65,0.0,1.0,73,0.00,,,0.00,Wunderground PWS Mod,2013-01-18 09:20:00,
2013-01-18 04:25:00,-5.2,-11.4,30.16,ENE,65,0.0,1.0,74,0.00,,,0.00,Wunderground PWS Mod,2013-01-18 09:25:00,
2013-01-18 04:30:00,-5.4,-11.6,30.16,ENE,65,0.0,1.0,74,0.00,,,0.00,Wunderground PWS Mod,2013-01-18 09:30:00,
2013-01-18 04:35:00,-5.6,-11.8,30.17,ENE,65,0.0,1.0,74,0.00,,,0.00,Wunderground PWS Mod,2013-01-18 09:35:00,
2013-01-18 04:41:00,-6.1,-12.0,30.17,ENE,65,0.0,1.0,75,0.00,,,0.00,Wunderground PWS Mod,2013-01-18 09:41:00,
2013-01-18 04:50:00,-6.5,-12.1,30.18,ENE,65,0.0,1.0,76,0.00,,,0.00,Wunderground PWS Mod,2013-01-18 09:50:00,
2013-01-18 04:55:00,-6.8,-12.4,30.18,ENE,65,0.0,1.0,76,0.00,,,0.00,Wunderground PWS Mod,2013-01-18 09:55:00,
2013-01-18 05:00:00,-7.0,-12.6,30.18,ENE,65,0.0,1.0,76,0.00,,,0.00,Wunderground PWS Mod,2013-01-18 10:00:00,
2013-01-18 05:05:00,-7.2,-12.8,30.19,ENE,65,0.0,1.0,76,0.00,,,0.00,Wunderground PWS Mod,2013-01-18 10:05:00,
2013-01-18 05:11:00,-7.5,-13.1,30.19,ENE,65,0.0,2.0,76,0.00,,,0.00,Wunderground PWS Mod,2013-01-18 10:11:00,
2013-01-18 05:15:00,-8.2,-13.2,30.21,ENE,68,0.0,2.0,78,0.00,,,0.00,Wunderground PWS Mod,2013-01-18 10:15:00,
2013-01-18 05:20:00,-7.7,-13.0,30.20,ENE,65,0.0,2.0,77,0.00,,,0.00,Wunderground PWS Mod,2013-01-18 10:20:00,
2013-01-18 05:26:00,-7.9,-13.2,30.20,ENE,65,0.0,2.0,77,0.00,,,0.00,Wunderground PWS Mod,2013-01-18 10:26:00,
2013-01-18 05:36:00,-8.2,-13.2,30.21,ENE,65,0.0,2.0,78,0.00,,,0.00,Wunderground PWS Mod,2013-01-18 10:36:00,
2013-01-18 05:41:00,-8.4,-13.4,30.21,ENE,65,0.0,2.0,78,0.00,,,0.00,Wunderground PWS Mod,2013-01-18 10:41:00,
2013-01-18 05:45:00,-9.3,-14.0,30.22,ENE,68,0.0,2.0,79,0.00,,,0.00,Wunderground PWS Mod,2013-01-18 10:45:00,
2013-01-18 05:50:00,-8.9,-13.9,30.21,ENE,65,0.0,2.0,78,0.00,,,0.00,Wunderground PWS Mod,2013-01-18 10:50:00,
2013-01-18 05:55:00,-9.1,-13.8,30.21,ENE,65,0.0,2.0,79,0.00,,,0.00,Wunderground PWS Mod,2013-01-18 10:55:00,
2013-01-18 06:00:00,-9.1,-13.8,30.21,ENE,65,0.0,2.0,79,0.00,,,0.00,Wunderground PWS Mod,2013-01-18 11:00:00,
2013-01-18 06:05:00,-9.3,-14.0,30.22,ENE,65,0.0,2.0,79,0.00,,,0.00,Wunderground PWS Mod,2013-01-18 11:05:00,
2013-01-18 06:11:00,-9.3,-14.3,30.22,ENE,65,0.0,2.0,78,0.00,,,0.00,Wunderground PWS Mod,2013-01-18 11:11:00,
2013-01-18 06:15:00,-10.3,-15.3,30.22,ENE,68,0.0,2.0,78,0.00,,,0.00,Wunderground PWS Mod,2013-01-18 11:15:00,
2013-01-18 06:20:00,-9.8,-14.5,30.22,ENE,65,0.0,2.0,79,0.00,,,0.00,Wunderground PWS Mod,2013-01-18 11:20:00,
2013-01-18 06:25:00,-10.0,-14.7,30.22,ENE,65,0.0,2.0,79,0.00,,,0.00,Wunderground PWS Mod,2013-01-18 11:25:00,
2013-01-18 06:30:00,-10.0,-14.7,30.22,ENE,65,0.0,2.0,79,0.00,,,0.00,Wunderground PWS Mod,2013-01-18 11:30:00,
2013-01-18 06:35:00,-10.3,-15.3,30.22,ENE,65,0.0,2.0,78,0.00,,,0.00,Wunderground PWS Mod,2013-01-18 11:35:00,
2013-01-18 06:40:00,-10.5,-15.5,30.22,ENE,65,0.0,2.0,78,0.00,,,0.00,Wunderground PWS Mod,2013-01-18 11:40:00,
2013-01-18 06:50:00,-10.7,-15.4,30.23,ENE,65,0.0,2.0,79,0.00,,,0.00,Wunderground PWS Mod,2013-01-18 11:50:00,
2013-01-18 06:55:00,-11.0,-15.7,30.23,ENE,65,0.0,2.0,79,0.00,,,0.00,Wunderground PWS Mod,2013-01-18 11:55:00,
2013-01-18 07:00:00,-11.0,-16.0,30.23,ENE,65,0.0,2.0,78,0.00,,,0.00,Wunderground PWS Mod,2013-01-18 12:00:00,
2013-01-18 07:06:00,-11.2,-16.1,30.23,ENE,65,0.0,2.0,78,0.00,,,0.00,Wunderground PWS Mod,2013-01-18 12:06:00,
2013-01-18 07:11:00,-11.2,-16.1,30.23,ENE,65,0.0,1.0,78,0.00,,,0.00,Wunderground PWS Mod,2013-01-18 12:11:00,
2013-01-18 07:15:00,-11.7,-16.6,30.26,N/A,-737280,0.0,0.0,78,0.00,,,0.00,Wunderground PWS Mod,2013-01-18 12:15:00,
2013-01-18 07:21:00,-11.5,-16.4,30.25,ENE,65,0.0,1.0,78,0.00,,,0.00,Wunderground PWS Mod,2013-01-18 12:21:00,
2013-01-18 07:31:00,-11.7,-16.6,30.25,ENE,65,0.0,1.0,78,0.00,,,0.00,Wunderground PWS Mod,2013-01-18 12:31:00,
2013-01-18 07:36:00,-11.7,-16.6,30.26,ENE,65,0.0,1.0,78,0.00,,,0.00,Wunderground PWS Mod,2013-01-18 12:36:00,
2013-01-18 07:41:00,-12.0,-16.9,30.26,ENE,65,0.0,0.0,78,0.00,,,0.00,Wunderground PWS Mod,2013-01-18 12:41:00,
2013-01-18 07:50:00,-12.0,-16.9,30.27,ENE,65,0.0,0.0,78,0.00,,,0.00,Wunderground PWS Mod,2013-01-18 12:50:00,
2013-01-18 07:55:00,-12.0,-16.9,30.27,ENE,65,0.0,0.0,78,0.00,,,0.00,Wunderground PWS Mod,2013-01-18 12:55:00,
2013-01-18 08:06:00,-12.0,-16.9,30.28,ENE,65,0.0,1.0,78,0.00,,,0.00,Wunderground PWS Mod,2013-01-18 13:06:00,
2013-01-18 08:11:00,-12.2,-17.1,30.28,ENE,65,0.0,2.0,78,0.00,,,0.00,Wunderground PWS Mod,2013-01-18 13:11:00,
2013-01-18 08:21:00,-12.2,-17.1,30.29,ENE,65,0.0,2.0,78,0.00,,,0.00,Wunderground PWS Mod,2013-01-18 13:21:00,
2013-01-18 08:25:00,-12.0,-16.9,30.30,ENE,68,0.0,2.0,78,0.00,,,0.00,Wunderground PWS Mod,2013-01-18 13:25:00,
2013-01-18 08:30:00,-12.0,-16.9,30.29,ENE,65,0.0,2.0,78,0.00,,,0.00,Wunderground PWS Mod,2013-01-18 13:30:00,
2013-01-18 08:35:00,-12.0,-16.9,30.30,ENE,65,0.0,2.0,78,0.00,,,0.00,Wunderground PWS Mod,2013-01-18 13:35:00,
2013-01-18 08:40:00,-11.7,-16.6,30.30,ENE,65,0.0,2.0,78,0.00,,,0.00,Wunderground PWS Mod,2013-01-18 13:40:00,
2013-01-18 08:50:00,-11.0,-15.7,30.30,ENE,65,0.0,2.0,79,0.00,,,0.00,Wunderground PWS Mod,2013-01-18 13:50:00,
2013-01-18 08:55:00,-10.5,-15.2,30.30,ENE,65,0.0,2.0,79,0.00,,,0.00,Wunderground PWS Mod,2013-01-18 13:55:00,
2013-01-18 09:00:00,-10.0,-14.7,30.30,ENE,65,0.0,2.0,79,0.00,,,0.00,Wunderground PWS Mod,2013-01-18 14:00:00,
2013-01-18 09:05:00,-9.3,-14.0,30.30,ENE,65,0.0,2.0,79,0.00,,,0.00,Wunderground PWS Mod,2013-01-18 14:05:00,
2013-01-18 09:11:00,-8.6,-13.4,30.30,ENE,65,0.0,2.0,79,0.00,,,0.00,Wunderground PWS Mod,2013-01-18 14:11:00,
2013-01-18 09:20:00,-7.7,-12.5,30.30,ENE,65,0.0,2.0,79,0.00,,,0.00,Wunderground PWS Mod,2013-01-18 14:20:00,
2013-01-18 09:25:00,-7.2,-12.0,30.30,ENE,65,0.0,2.0,79,0.00,,,0.00,Wunderground PWS Mod,2013-01-18 14:25:00,
2013-01-18 09:30:00,-6.5,-11.3,30.30,ENE,65,0.0,2.0,79,0.00,,,0.00,Wunderground PWS Mod,2013-01-18 14:30:00,
2013-01-18 09:36:00,-5.9,-11.0,30.31,ENE,65,0.0,2.0,78,0.00,,,0.00,Wunderground PWS Mod,2013-01-18 14:36:00,
2013-01-18 09:41:00,-4.8,-9.7,30.31,ENE,65,0.0,0.0,79,0.00,,,0.00,Wunderground PWS Mod,2013-01-18 14:41:00,
2013-01-18 09:45:00,-0.6,-8.0,30.30,ENE,68,0.0,1.0,70,0.00,,,0.00,Wunderground PWS Mod,2013-01-18 14:45:00,
2013-01-18 09:50:00,-3.1,-9.1,30.30,ENE,65,0.0,0.0,75,0.00,,,0.00,Wunderground PWS Mod,2013-01-18 14:50:00,
2013-01-18 09:55:00,-2.0,-8.5,30.30,ENE,65,0.0,0.0,73,0.00,,,0.00,Wunderground PWS Mod,2013-01-18 14:55:00,
2013-01-18 10:06:00,-0.6,-8.3,30.30,ENE,65,0.0,0.0,69,0.00,,,0.00,Wunderground PWS Mod,2013-01-18 15:06:00,
2013-01-18 10:11:00,0.5,-8.2,30.30,ENE,65,0.0,1.0,66,0.00,,,0.00,Wunderground PWS Mod,2013-01-18 15:11:00,
2013-01-18 10:21:00,2.0,-9.1,30.29,ENE,65,0.0,1.0,59,0.00,,,0.00,Wunderground PWS Mod,2013-01-18 15:21:00,
2013-01-18 10:30:00,3.2,-10.1,30.29,ENE,65,0.0,1.0,53,0.00,,,0.00,Wunderground PWS Mod,2013-01-18 15:30:00,
2013-01-18 10:36:00,3.5,-9.8,30.29,South,169,0.0,1.0,53,0.00,,,0.00,Wunderground PWS Mod,2013-01-18 15:36:00,
2013-01-18 10:40:00,3.5,-9.8,30.28,ENE,68,0.0,1.0,53,0.00,,,0.00,Wunderground PWS Mod,2013-01-18 15:40:00,
2013-01-18 10:45:00,3.9,-9.5,30.29,South,169,0.0,1.0,53,0.00,,,0.00,Wunderground PWS Mod,2013-01-18 15:45:00,
2013-01-18 10:50:00,4.8,-9.4,30.27,South,182,0.0,1.0,51,0.00,,,0.00,Wunderground PWS Mod,2013-01-18 15:50:00,
2013-01-18 10:55:00,5.6,-9.5,30.27,SW,231,1.0,2.0,49,0.00,,,0.00,Wunderground PWS Mod,2013-01-18 15:55:00,
2013-01-18 11:01:00,6.5,-9.1,30.27,SSW,211,2.0,2.0,48,0.00,,,0.00,Wunderground PWS Mod,2013-01-18 16:01:00,
2013-01-18 11:06:00,6.9,-8.3,30.27,WSW,238,3.0,5.0,49,0.00,,,0.00,Wunderground PWS Mod,2013-01-18 16:06:00,
2013-01-18 11:11:00,7.7,-7.9,30.27,South,180,3.0,9.0,48,0.00,,,0.00,Wunderground PWS Mod,2013-01-18 16:11:00,
2013-01-18 11:20:00,8.3,-8.3,30.26,WSW,247,4.0,9.0,46,0.00,,,0.00,Wunderground PWS Mod,2013-01-18 16:20:00,
2013-01-18 11:25:00,9.0,-7.6,30.26,South,188,3.0,9.0,46,0.00,,,0.00,Wunderground PWS Mod,2013-01-18 16:25:00,
2013-01-18 11:30:00,9.3,-7.8,30.26,WSW,257,2.0,9.0,45,0.00,,,0.00,Wunderground PWS Mod,2013-01-18 16:30:00,
2013-01-18 11:36:00,9.7,-7.4,30.26,West,260,3.0,9.0,45,0.00,,,0.00,Wunderground PWS Mod,2013-01-18 16:36:00,
2013-01-18 11:40:00,9.7,-7.9,30.26,SSW,203,3.0,14.0,44,0.00,,,0.00,Wunderground PWS Mod,2013-01-18 16:40:00,
2013-01-18 11:46:00,10.5,-6.2,30.26,WNW,294,2.0,14.0,46,0.00,,,0.00,Wunderground PWS Mod,2013-01-18 16:46:00,
2013-01-18 11:56:00,10.9,-6.8,30.25,WNW,288,3.0,14.0,44,0.00,,,0.00,Wunderground PWS Mod,2013-01-18 16:56:00,
2013-01-18 12:01:00,11.1,-7.1,30.25,SSE,167,3.0,14.0,43,0.00,,,0.00,Wunderground PWS Mod,2013-01-18 17:01:00,
2013-01-18 12:06:00,11.4,-5.9,30.25,WSW,240,2.0,14.0,45,0.00,,,0.00,Wunderground PWS Mod,2013-01-18 17:06:00,
2013-01-18 12:11:00,11.7,-7.5,30.25,WSW,242,3.0,10.0,41,0.00,,,0.00,Wunderground PWS Mod,2013-01-18 17:11:00,
2013-01-18 12:15:00,13.1,-7.8,30.24,SSW,203,4.0,14.0,38,0.00,,,0.00,Wunderground PWS Mod,2013-01-18 17:15:00,
2013-01-18 12:20:00,12.3,-8.5,30.24,SW,216,3.0,10.0,38,0.00,,,0.00,Wunderground PWS Mod,2013-01-18 17:20:00,
2013-01-18 12:25:00,12.4,-6.9,30.24,SSW,200,4.0,10.0,41,0.00,,,0.00,Wunderground PWS Mod,2013-01-18 17:25:00,
2013-01-18 12:30:00,13.1,-7.3,30.24,South,180,3.0,10.0,39,0.00,,,0.00,Wunderground PWS Mod,2013-01-18 17:30:00,
2013-01-18 12:35:00,13.1,-7.8,30.24,WNW,282,5.0,10.0,38,0.00,,,0.00,Wunderground PWS Mod,2013-01-18 17:35:00,
2013-01-18 12:41:00,12.9,-8.5,30.24,WNW,284,6.0,14.0,37,0.00,,,0.00,Wunderground PWS Mod,2013-01-18 17:41:00,
2013-01-18 12:45:00,14.3,-8.4,30.24,SSW,203,2.0,17.0,35,0.00,,,0.00,Wunderground PWS Mod,2013-01-18 17:45:00,
2013-01-18 12:50:00,14.1,-8.0,30.24,WSW,254,1.0,14.0,36,0.00,,,0.00,Wunderground PWS Mod,2013-01-18 17:50:00,
2013-01-18 12:56:00,14.4,-7.7,30.24,North,355,1.0,14.0,36,0.00,,,0.00,Wunderground PWS Mod,2013-01-18 17:56:00,
2013-01-18 13:01:00,15.1,-6.5,30.24,SSW,198,0.0,14.0,37,0.00,,,0.00,Wunderground PWS Mod,2013-01-18 18:01:00,
2013-01-18 13:06:00,14.1,-8.6,30.24,SSE,155,4.0,14.0,35,0.00,,,0.00,Wunderground PWS Mod,2013-01-18 18:06:00,
2013-01-18 13:11:00,13.8,-7.2,30.24,NNW,327,6.0,17.0,38,0.00,,,0.00,Wunderground PWS Mod,2013-01-18 18:11:00,
2013-01-18 13:15:00,14.8,-6.8,30.25,SW,225,5.0,19.0,37,0.00,,,0.00,Wunderground PWS Mod,2013-01-18 18:15:00,
2013-01-18 13:21:00,14.3,-6.7,30.24,WNW,284,5.0,17.0,38,0.00,,,0.00,Wunderground PWS Mod,2013-01-18 18:21:00,
2013-01-18 13:26:00,14.3,-8.4,30.24,NW,309,6.0,17.0,35,0.00,,,0.00,Wunderground PWS Mod,2013-01-18 18:26:00,
2013-01-18 13:35:00,14.8,-6.8,30.25,West,263,5.0,17.0,37,0.00,,,0.00,Wunderground PWS Mod,2013-01-18 18:35:00,
2013-01-18 13:41:00,15.1,-5.5,30.25,SSE,167,4.0,19.0,39,0.00,,,0.00,Wunderground PWS Mod,2013-01-18 18:41:00,
2013-01-18 13:45:00,15.9,-5.8,30.26,SSW,203,3.0,15.0,37,0.00,,,0.00,Wunderground PWS Mod,2013-01-18 18:45:00,
2013-01-18 13:51:00,16.2,-6.1,30.25,SSW,192,2.0,19.0,36,0.00,,,0.00,Wunderground PWS Mod,2013-01-18 18:51:00,
2013-01-18 13:56:00,15.6,-7.2,30.25,SSW,196,4.0,19.0,35,0.00,,,0.00,Wunderground PWS Mod,2013-01-18 18:56:00,
2013-01-18 14:05:00,15.9,-5.8,30.26,SW,225,3.0,19.0,37,0.00,,,0.00,Wunderground PWS Mod,2013-01-18 19:05:00,
2013-01-18 14:11:00,16.1,-6.2,30.26,SSW,211,2.0,15.0,36,0.00,,,0.00,Wunderground PWS Mod,2013-01-18 19:11:00,
2013-01-18 14:15:00,16.4,-5.9,30.27,SSW,203,2.0,13.0,36,0.00,,,0.00,Wunderground PWS Mod,2013-01-18 19:15:00,
2013-01-18 14:20:00,16.7,-6.3,30.27,West,276,1.0,15.0,35,0.00,,,0.00,Wunderground PWS Mod,2013-01-18 19:20:00,
2013-01-18 14:26:00,16.7,-5.1,30.27,SSE,155,1.0,15.0,37,0.00,,,0.00,Wunderground PWS Mod,2013-01-18 19:26:00,
2013-01-18 14:31:00,16.5,-5.9,30.27,WNW,284,2.0,15.0,36,0.00,,,0.00,Wunderground PWS Mod,2013-01-18 19:31:00,
2013-01-18 14:36:00,16.4,-5.9,30.27,WSW,243,3.0,15.0,36,0.00,,,0.00,Wunderground PWS Mod,2013-01-18 19:36:00,
2013-01-18 14:41:00,16.5,-6.4,30.27,South,191,3.0,13.0,35,0.00,,,0.00,Wunderground PWS Mod,2013-01-18 19:41:00,
2013-01-18 14:45:00,16.1,-5.6,30.26,WNW,293,2.0,11.0,37,0.00,,,0.00,Wunderground PWS Mod,2013-01-18 19:45:00,
2013-01-18 14:51:00,16.2,-5.0,30.27,WNW,295,2.0,13.0,38,0.00,,,0.00,Wunderground PWS Mod,2013-01-18 19:51:00,
2013-01-18 14:56:00,16.1,-6.2,30.27,SSE,168,3.0,13.0,36,0.00,,,0.00,Wunderground PWS Mod,2013-01-18 19:56:00,
2013-01-18 15:05:00,16.1,-6.2,30.26,SSW,205,2.0,13.0,36,0.00,,,0.00,Wunderground PWS Mod,2013-01-18 20:05:00,
2013-01-18 15:11:00,16.2,-5.6,30.26,South,176,2.0,11.0,37,0.00,,,0.00,Wunderground PWS Mod,2013-01-18 20:11:00,
2013-01-18 15:20:00,15.4,-5.2,30.26,SSW,203,2.0,13.0,39,0.00,,,0.00,Wunderground PWS Mod,2013-01-18 20:20:00,
2013-01-18 15:21:00,16.4,-5.4,30.26,SSW,207,2.0,11.0,37,0.00,,,0.00,Wunderground PWS Mod,2013-01-18 20:21:00,
2013-01-18 15:26:00,16.4,-4.8,30.26,SW,227,2.0,11.0,38,0.00,,,0.00,Wunderground PWS Mod,2013-01-18 20:26:00,
2013-01-18 15:31:00,15.9,-5.3,30.26,South,188,3.0,11.0,38,0.00,,,0.00,Wunderground PWS Mod,2013-01-18 20:31:00,
2013-01-18 15:36:00,15.4,-5.2,30.27,South,174,3.0,11.0,39,0.00,,,0.00,Wunderground PWS Mod,2013-01-18 20:36:00,
2013-01-18 15:41:00,15.1,-5.5,30.27,SW,232,2.0,13.0,39,0.00,,,0.00,Wunderground PWS Mod,2013-01-18 20:41:00,
2013-01-18 15:45:00,14.8,-4.2,30.27,SSW,203,2.0,10.0,42,0.00,,,0.00,Wunderground PWS Mod,2013-01-18 20:45:00,
2013-01-18 15:50:00,15.1,-6.0,30.27,SSW,193,1.0,13.0,38,0.00,,,0.00,Wunderground PWS Mod,2013-01-18 20:50:00,
2013-01-18 16:00:00,14.9,-3.6,30.27,SSW,194,2.0,13.0,43,0.00,,,0.00,Wunderground PWS Mod,2013-01-18 21:00:00,
2013-01-18 16:05:00,14.8,-5.7,30.27,South,187,2.0,13.0,39,0.00,,,0.00,Wunderground PWS Mod,2013-01-18 21:05:00,
2013-01-18 16:11:00,14.8,-2.7,30.27,SSE,168,1.0,10.0,45,0.00,,,0.00,Wunderground PWS Mod,2013-01-18 21:11:00,
2013-01-18 16:15:00,13.3,-2.8,30.28,South,180,1.0,6.0,48,0.00,,,0.00,Wunderground PWS Mod,2013-01-18 21:15:00,
2013-01-18 16:21:00,14.3,-4.6,30.28,SSW,208,1.0,10.0,42,0.00,,,0.00,Wunderground PWS Mod,2013-01-18 21:21:00,
2013-01-18 16:26:00,14.0,-3.9,30.28,SW,224,1.0,10.0,44,0.00,,,0.00,Wunderground PWS Mod,2013-01-18 21:26:00,
2013-01-18 16:31:00,13.6,-4.3,30.28,SW,224,0.0,10.0,44,0.00,,,0.00,Wunderground PWS Mod,2013-01-18 21:31:00,
2013-01-18 16:36:00,13.3,-2.8,30.29,SW,224,0.0,10.0,48,0.00,,,0.00,Wunderground PWS Mod,2013-01-18 21:36:00,
2013-01-18 16:41:00,12.9,-1.4,30.29,SW,224,0.0,6.0,52,0.00,,,0.00,Wunderground PWS Mod,2013-01-18 21:41:00,
2013-01-18 16:50:00,11.9,-0.8,30.29,SW,224,0.0,6.0,56,0.00,,,0.00,Wunderground PWS Mod,2013-01-18 21:50:00,
2013-01-18 16:55:00,11.2,-1.1,30.29,SW,224,0.0,6.0,57,0.00,,,0.00,Wunderground PWS Mod,2013-01-18 21:55:00,
2013-01-18 17:00:00,10.9,-1.0,30.29,SW,224,0.0,6.0,58,0.00,,,0.00,Wunderground PWS Mod,2013-01-18 22:00:00,
2013-01-18 17:06:00,10.4,-1.1,30.29,SW,224,0.0,6.0,59,0.00,,,0.00,Wunderground PWS Mod,2013-01-18 22:06:00,
2013-01-18 17:11:00,9.9,-0.9,30.29,SW,224,0.0,0.0,61,0.00,,,0.00,Wunderground PWS Mod,2013-01-18 22:11:00,
2013-01-18 17:15:00,7.7,-1.6,30.31,N/A,-737280,0.0,0.0,65,0.00,,,0.00,Wunderground PWS Mod,2013-01-18 22:15:00,
2013-01-18 17:21:00,9.0,-1.1,30.30,SW,224,0.0,0.0,63,0.00,,,0.00,Wunderground PWS Mod,2013-01-18 22:21:00,
2013-01-18 17:26:00,8.6,-1.1,30.30,SW,224,0.0,0.0,64,0.00,,,0.00,Wunderground PWS Mod,2013-01-18 22:26:00,
2013-01-18 17:31:00,8.1,-1.6,30.30,SW,224,0.0,0.0,64,0.00,,,0.00,Wunderground PWS Mod,2013-01-18 22:31:00,
2013-01-18 17:36:00,7.6,-1.7,30.31,SW,224,0.0,0.0,65,0.00,,,0.00,Wunderground PWS Mod,2013-01-18 22:36:00,
2013-01-18 17:40:00,7.7,-1.6,30.31,N/A,-737280,0.0,0.0,65,0.00,,,0.00,Wunderground PWS Mod,2013-01-18 22:40:00,
2013-01-18 17:46:00,6.7,-1.9,30.31,SW,224,0.0,0.0,67,0.00,,,0.00,Wunderground PWS Mod,2013-01-18 22:46:00,
2013-01-18 17:51:00,6.1,-2.2,30.31,SW,224,0.0,0.0,68,0.00,,,0.00,Wunderground PWS Mod,2013-01-18 22:51:00,
2013-01-18 17:56:00,5.8,-2.5,30.31,SW,224,0.0,0.0,68,0.00,,,0.00,Wunderground PWS Mod,2013-01-18 22:56:00,
2013-01-18 18:01:00,5.4,-2.6,30.31,SW,224,0.0,0.0,69,0.00,,,0.00,Wunderground PWS Mod,2013-01-18 23:01:00,
2013-01-18 18:11:00,4.5,-3.1,30.31,SW,224,0.0,0.0,70,0.00,,,0.00,Wunderground PWS Mod,2013-01-18 23:11:00,
2013-01-18 18:15:00,3.2,-3.5,30.31,N/A,-737280,0.0,0.0,73,0.00,,,0.00,Wunderground PWS Mod,2013-01-18 23:15:00,
2013-01-18 18:21:00,3.9,-3.4,30.31,SW,224,0.0,0.0,71,0.00,,,0.00,Wunderground PWS Mod,2013-01-18 23:21:00,
2013-01-18 18:26:00,3.7,-3.3,30.31,SW,224,0.0,0.0,72,0.00,,,0.00,Wunderground PWS Mod,2013-01-18 23:26:00,
2013-01-18 18:36:00,3.2,-3.5,30.31,SW,224,0.0,0.0,73,0.00,,,0.00,Wunderground PWS Mod,2013-01-18 23:36:00,
2013-01-18 18:41:00,2.8,-3.6,30.31,SW,224,0.0,0.0,74,0.00,,,0.00,Wunderground PWS Mod,2013-01-18 23:41:00,
2013-01-18 18:50:00,2.4,-3.7,30.31,SW,224,0.0,0.0,75,0.00,,,0.00,Wunderground PWS Mod,2013-01-18 23:50:00,
2013-01-18 18:55:00,2.2,-3.9,30.31,SW,224,0.0,0.0,75,0.00,,,0.00,Wunderground PWS Mod,2013-01-18 23:55:00,
2013-01-18 19:00:00,2.0,-3.8,30.31,SW,224,0.0,0.0,76,0.00,,,0.00,Wunderground PWS Mod,2013-01-19 00:00:00,
2013-01-18 19:05:00,1.7,-4.1,30.31,SW,224,0.0,0.0,76,0.00,,,0.00,Wunderground PWS Mod,2013-01-19 00:05:00,
2013-01-18 19:11:00,1.5,-4.3,30.31,SW,224,0.0,1.0,76,0.00,,,0.00,Wunderground PWS Mod,2013-01-19 00:11:00,
2013-01-18 19:15:00,0.5,-4.7,30.32,North,0,0.0,2.0,78,0.00,,,0.00,Wunderground PWS Mod,2013-01-19 00:15:00,
2013-01-18 19:20:00,1.1,-4.4,30.32,North,355,0.0,1.0,77,0.00,,,0.00,Wunderground PWS Mod,2013-01-19 00:20:00,
2013-01-18 19:25:00,0.9,-4.6,30.32,North,355,0.0,1.0,77,0.00,,,0.00,Wunderground PWS Mod,2013-01-19 00:25:00,
2013-01-18 19:30:00,0.7,-4.6,30.32,North,355,0.0,1.0,78,0.00,,,0.00,Wunderground PWS Mod,2013-01-19 00:30:00,
2013-01-18 19:36:00,0.3,-4.9,30.32,North,355,0.0,1.0,78,0.00,,,0.00,Wunderground PWS Mod,2013-01-19 00:36:00,
2013-01-18 19:45:00,-0.2,-5.2,30.32,North,0,0.0,3.0,79,0.00,,,0.00,Wunderground PWS Mod,2013-01-19 00:45:00,
2013-01-18 19:46:00,0.1,-4.9,30.32,North,360,1.0,2.0,79,0.00,,,0.00,Wunderground PWS Mod,2013-01-19 00:46:00,
2013-01-18 19:51:00,0.0,-5.0,30.32,North,360,0.0,2.0,79,0.00,,,0.00,Wunderground PWS Mod,2013-01-19 00:51:00,
2013-01-18 19:56:00,0.0,-5.0,30.32,North,360,0.0,2.0,79,0.00,,,0.00,Wunderground PWS Mod,2013-01-19 00:56:00,
2013-01-18 20:01:00,0.0,-5.0,30.32,North,360,0.0,2.0,79,0.00,,,0.00,Wunderground PWS Mod,2013-01-19 01:01:00,
2013-01-18 20:06:00,-0.2,-5.2,30.32,North,360,0.0,2.0,79,0.00,,,0.00,Wunderground PWS Mod,2013-01-19 01:06:00,
2013-01-18 20:11:00,-0.4,-5.1,30.32,North,360,0.0,3.0,80,0.00,,,0.00,Wunderground PWS Mod,2013-01-19 01:11:00,
2013-01-18 20:20:00,-0.8,-5.5,30.32,North,360,0.0,3.0,80,0.00,,,0.00,Wunderground PWS Mod,2013-01-19 01:20:00,
2013-01-18 20:25:00,-1.0,-5.7,30.32,North,360,0.0,3.0,80,0.00,,,0.00,Wunderground PWS Mod,2013-01-19 01:25:00,
2013-01-18 20:31:00,-1.2,-5.9,30.32,North,360,0.0,3.0,80,0.00,,,0.00,Wunderground PWS Mod,2013-01-19 01:31:00,
2013-01-18 20:36:00,-1.4,-5.8,30.32,North,360,0.0,3.0,81,0.00,,,0.00,Wunderground PWS Mod,2013-01-19 01:36:00,
2013-01-18 20:41:00,-1.6,-6.0,30.32,North,360,0.0,1.0,81,0.00,,,0.00,Wunderground PWS Mod,2013-01-19 01:41:00,
2013-01-18 20:50:00,-1.8,-6.2,30.31,North,360,0.0,1.0,81,0.00,,,0.00,Wunderground PWS Mod,2013-01-19 01:50:00,
2013-01-18 20:55:00,-1.8,-6.2,30.31,North,360,0.0,1.0,81,0.00,,,0.00,Wunderground PWS Mod,2013-01-19 01:55:00,
2013-01-18 21:00:00,-2.0,-6.4,30.31,North,360,0.0,2.0,81,0.00,,,0.00,Wunderground PWS Mod,2013-01-19 02:00:00,
2013-01-18 21:11:00,-2.0,-6.1,30.30,North,360,0.0,2.0,82,0.00,,,0.00,Wunderground PWS Mod,2013-01-19 02:11:00,
2013-01-18 21:20:00,-2.2,-6.3,30.29,North,360,0.0,2.0,82,0.00,,,0.00,Wunderground PWS Mod,2013-01-19 02:20:00,
2013-01-18 21:25:00,-2.2,-6.3,30.29,North,360,0.0,2.0,82,0.00,,,0.00,Wunderground PWS Mod,2013-01-19 02:25:00,
2013-01-18 21:30:00,-2.2,-6.3,30.29,North,360,0.0,2.0,82,0.00,,,0.00,Wunderground PWS Mod,2013-01-19 02:30:00,
2013-01-18 21:35:00,-2.4,-6.5,30.29,North,360,0.0,2.0,82,0.00,,,0.00,Wunderground PWS Mod,2013-01-19 02:35:00,
2013-01-18 21:41:00,-2.6,-6.7,30.29,NNE,24,1.0,3.0,82,0.00,,,0.00,Wunderground PWS Mod,2013-01-19 02:41:00,
2013-01-18 21:45:00,-2.4,-6.5,30.28,NNE,23,1.0,4.0,82,0.00,,,0.00,Wunderground PWS Mod,2013-01-19 02:45:00,
2013-01-18 21:50:00,-2.6,-6.7,30.28,NNE,15,1.0,2.0,82,0.00,,,0.00,Wunderground PWS Mod,2013-01-19 02:50:00,
2013-01-18 21:55:00,-2.4,-6.5,30.28,NNE,15,0.0,2.0,82,0.00,,,0.00,Wunderground PWS Mod,2013-01-19 02:55:00,
2013-01-18 22:00:00,-2.4,-6.5,30.28,NNE,15,0.0,2.0,82,0.00,,,0.00,Wunderground PWS Mod,2013-01-19 03:00:00,
2013-01-18 22:06:00,-2.4,-6.5,30.28,NNE,15,0.0,2.0,82,0.00,,,0.00,Wunderground PWS Mod,2013-01-19 03:06:00,
2013-01-18 22:11:00,-2.4,-6.5,30.28,NNE,15,0.0,4.0,82,0.00,,,0.00,Wunderground PWS Mod,2013-01-19 03:11:00,
2013-01-18 22:15:00,-2.0,-6.4,30.26,NNE,23,0.0,2.0,81,0.00,,,0.00,Wunderground PWS Mod,2013-01-19 03:15:00,
2013-01-18 22:20:00,-2.2,-6.3,30.27,NNE,15,0.0,4.0,82,0.00,,,0.00,Wunderground PWS Mod,2013-01-19 03:20:00,
2013-01-18 22:30:00,-2.0,-6.4,30.27,NNE,15,0.0,4.0,81,0.00,,,0.00,Wunderground PWS Mod,2013-01-19 03:30:00,
2013-01-18 22:35:00,-2.0,-6.4,30.26,NNE,15,0.0,4.0,81,0.00,,,0.00,Wunderground PWS Mod,2013-01-19 03:35:00,
2013-01-18 22:41:00,-1.8,-6.2,30.26,NNE,15,0.0,2.0,81,0.00,,,0.00,Wunderground PWS Mod,2013-01-19 03:41:00,
2013-01-18 22:45:00,-1.4,-5.8,30.24,NNE,23,0.0,2.0,81,0.00,,,0.00,Wunderground PWS Mod,2013-01-19 03:45:00,
2013-01-18 22:51:00,-1.6,-6.0,30.25,NNE,15,0.0,2.0,81,0.00,,,0.00,Wunderground PWS Mod,2013-01-19 03:51:00,
2013-01-18 22:56:00,-1.4,-5.8,30.25,NNE,15,0.0,2.0,81,0.00,,,0.00,Wunderground PWS Mod,2013-01-19 03:56:00,
2013-01-18 23:01:00,-1.4,-5.8,30.25,NNE,15,0.0,2.0,81,0.00,,,0.00,Wunderground PWS Mod,2013-01-19 04:01:00,
2013-01-18 23:11:00,-1.0,-5.7,30.24,NNE,15,1.0,2.0,80,0.00,,,0.00,Wunderground PWS Mod,2013-01-19 04:11:00,
2013-01-18 23:15:00,-0.4,-5.1,30.22,NNE,23,0.0,3.0,80,0.00,,,0.00,Wunderground PWS Mod,2013-01-19 04:15:00,
2013-01-18 23:20:00,-0.8,-5.5,30.22,NE,42,1.0,2.0,80,0.00,,,0.00,Wunderground PWS Mod,2013-01-19 04:20:00,
2013-01-18 23:26:00,-0.6,-5.3,30.22,NE,42,0.0,2.0,80,0.00,,,0.00,Wunderground PWS Mod,2013-01-19 04:26:00,
2013-01-18 23:31:00,-0.6,-5.3,30.22,NE,42,0.0,2.0,80,0.00,,,0.00,Wunderground PWS Mod,2013-01-19 04:31:00,
2013-01-18 23:41:00,0.0,-4.7,30.22,NE,42,0.0,3.0,80,0.00,,,0.00,Wunderground PWS Mod,2013-01-19 04:41:00,
2013-01-18 23:50:00,0.3,-4.4,30.21,NE,42,0.0,3.0,80,0.00,,,0.00,Wunderground PWS Mod,2013-01-19 04:50:00,
2013-01-18 23:55:00,0.5,-4.2,30.21,NE,42,0.0,3.0,80,0.00,,,0.00,Wunderground PWS Mod,2013-01-19 04:55:00,